Weather History for KLEE - July, 2014

Change the Weather History Date:

Saturday, July 26, 2014

  Actual Average (KMCO) Record (KMCO)
Temperature  
Mean Temperature 84 °F 83 °F  
Max Temperature 91 °F 92 °F 98 °F (1936)
Min Temperature 77 °F 74 °F 66 °F (1893)
Degree Days  
Heating Degree Days 0 0  
Month to date heating degree days 0  
Since 1 June heating degree days 0  
Since 1 July heating degree days 0  
Cooling Degree Days 19 18  
Month to date cooling degree days 460  
Year to date cooling degree days 1751  
Since 1 June cooling degree days 950  
Growing Degree Days 34 (Base 50)    
Moisture  
Dew Point 75 °F    
Average Humidity 76    
Maximum Humidity 94    
Minimum Humidity 55    
Precipitation  
Precipitation 0.00 in 0.25 in 2.63 in (1954)
Month to date precipitation 6.08  
Year to date precipitation 28.29  
Sea Level Pressure  
Sea Level Pressure 30.08 in    
Wind  
Wind Speed 5 mph (WSW)    
Max Wind Speed 13 mph    
Max Gust Speed -    
Visibility 10 miles    
Events Thunderstorm    
T = Trace of Precipitation, MM = Missing Value Source: NWS Daily Summary

Daily Weather History Graph

Daily Weather History Graph

Search for Another Location

Airport or City:

Trip Planner

Search our weather history database for the weather conditions in past years. The results will help you decide how hot, cold, wet, or windy it might be!

Date:

Astronomy

Jul. 26, 2014 Rise Set
Actual Time 6:44 AM EDT 8:22 PM EDT
Civil Twilight 6:19 AM EDT 8:48 PM EDT
Nautical Twilight 5:47 AM EDT 9:19 PM EDT
Astronomical Twilight 5:15 AM EDT 9:51 PM EDT
Moon 6:31 AM EDT (7/26) 8:03 PM EDT (7/26)
Length of Visible Light 14h 29m
Length of Day
13h 37m
Waning Crescent, 0% of the Moon is Illuminated
Jul 26
Waning Crescent
Jul 26
New
Aug 3
First Quarter
Aug 10
Full
Aug 17
Last Quarter

Hourly Weather History & Observations

Time (EDT) Temp. Heat Index Dew Point Humidity Pressure Visibility Wind Dir Wind Speed Gust Speed Precip Events Conditions
12:53 AM 77.0 °F - 75.0 °F 94% 30.09 in 10.0 mi Calm Calm - N/A   Clear
1:53 AM 78.1 °F - 75.9 °F 93% 30.09 in 10.0 mi SSW 4.6 mph - N/A   Clear
2:53 AM 79.0 °F - 75.9 °F 90% 30.06 in 10.0 mi South 6.9 mph - N/A   Clear
3:53 AM 79.0 °F - 75.0 °F 88% 30.05 in 10.0 mi SSW 6.9 mph - N/A   Clear
4:53 AM 79.0 °F - 75.9 °F 90% 30.05 in 10.0 mi SSW 6.9 mph - N/A   Clear
5:53 AM 78.1 °F - 75.9 °F 93% 30.06 in 10.0 mi SSW 3.5 mph - N/A   Clear
6:53 AM 78.1 °F - 75.0 °F 90% 30.07 in 10.0 mi SSW 5.8 mph - N/A   Clear
7:53 AM 79.0 °F - 75.0 °F 88% 30.09 in 10.0 mi SSW 6.9 mph - N/A   Clear
8:53 AM 82.0 °F 88.6 °F 75.0 °F 79% 30.11 in 10.0 mi SW 6.9 mph - N/A   Clear
9:53 AM 84.9 °F 96.6 °F 78.1 °F 80% 30.12 in 10.0 mi Variable 3.5 mph - N/A   Clear
11:53 AM 87.1 °F 97.3 °F 75.9 °F 69% 30.10 in 10.0 mi SW 12.7 mph - N/A Thunderstorm Mostly Cloudy
12:14 PM 84.0 °F 89.6 °F 72.0 °F 67% 30.11 in 10.0 mi SW 9.2 mph - N/A   Partly Cloudy
12:40 PM 84.9 °F 90.7 °F 72.0 °F 65% 30.11 in 10.0 mi WNW 4.6 mph - N/A Thunderstorm Thunderstorm
2:53 PM 90.0 °F 101.3 °F 75.9 °F 63% 30.08 in 10.0 mi Variable 3.5 mph - N/A   Clear
3:53 PM 91.0 °F 102.9 °F 75.9 °F 61% 30.06 in 10.0 mi Variable 4.6 mph - N/A   Scattered Clouds
4:53 PM 91.9 °F 101.3 °F 73.9 °F 55% 30.05 in 10.0 mi West 6.9 mph - N/A   Clear
5:53 PM 90.0 °F 100.2 °F 75.0 °F 61% 30.04 in 10.0 mi Variable 5.8 mph - N/A   Clear
6:53 PM 89.1 °F 98.0 °F 73.9 °F 61% 30.04 in 10.0 mi WNW 9.2 mph - N/A   Clear
7:53 PM 88.0 °F 95.6 °F 73.0 °F 61% 30.06 in 10.0 mi West 6.9 mph - N/A   Clear
8:53 PM 86.0 °F 93.8 °F 73.9 °F 67% 30.07 in 10.0 mi West 4.6 mph - N/A   Clear
9:53 PM 82.0 °F 89.4 °F 75.9 °F 82% 30.07 in 10.0 mi WSW 4.6 mph - N/A   Clear
10:53 PM 82.0 °F 88.6 °F 75.0 °F 79% 30.07 in 10.0 mi WNW 3.5 mph - N/A   Clear
11:53 PM 82.0 °F 88.6 °F 75.0 °F 79% 30.09 in 10.0 mi WNW 3.5 mph - N/A   Clear